Temp
74 75 74 75 78 80 80 81 82 81 81 81 83 82 82 82 81 81 80 79 79 78 78 78 78 78 78 78 78 77 78 77 78 78 78 77 78 77 77 77 78 77 77 77 78 77 79 79 80 80 79 79 79 78 78 78 78 79 78 77 77 77 76
74 74 75 75 76 80 80 82 82 82 81 81 83 82 82 81 81 80 80 79 79 79 78 79 79 78 79 79 79 77 77 77 78 79 79 77 79 77 79 78 78 77 77 78 78 78 79 80 80 79 79 80 79 79 79 78 78 78 78 77 77 76 77
74 75 75 75 75 78 79 81 82 82 82 82 83 82 82 80 81 80 80 79 79 79 79 79 79 79 79 79 78 77 77 78 78 79 78 79 79 80 79 79 79 79 79 79 78 80 80 80 78 79 80 80 80 79 79 79 78 78 78 77 78 78 75
73 75 75 76 76 76 79 81 81 82 83 83 83 83 82 81 82 81 81 80 79 79 78 79 80 80 79 79 79 77 77 78 79 80 80 80 80 81 79 79 79 80 79 79 81 81 83 81 80 79 81 80 79 80 79 79 79 78 78 77 77 77 76
75 77 76 75 76 75 75 77 80 81 82 83 83 82 82 82 82 82 81 82 81 80 80 81 82 81 81 80 81 80 79 79 79 80 81 81 80 80 80 80 80 80 80 80 80 80 80 79 80 79 79 79 79 79 79 79 79 79 78 77 77 77 77
74 75 76 75 75 75 74 75 79 81 82 82 82 81 81 82 82 81 81 81 81 81 81 81 81 81 80 81 82 82 80 79 79 79 81 80 80 80 80 81 81 81 81 80 80 80 80 80 80 80 80 80 80 80 80 79 80 80 79 77 78 78 78
74 76 77 76 75 75 73 72 75 78 81 82 82 82 81 81 81 81 81 80 81 79 79 80 81 81 81 81 81 81 79 80 79 80 81 81 81 81 81 81 81 81 82 80 80 80 80 80 80 80 81 81 80 81 80 79 79 79 79 78 77 77 77
74 75 76 77 76 71 71 71 72 74 74 77 78 81 81 81 80 80 80 80 80 80 80 80 81 80 80 81 82 81 81 81 81 81 80 81 82 81 82 81 81 82 81 81 81 80 80 80 81 81 81 81 80 80 80 79 79 80 79 78 77 77 80
67 68 71 77 75 73 72 71 73 74 74 75 74 76 80 80 80 80 80 80 80 80 80 81 81 81 81 81 81 81 82 82 82 82 81 81 82 83 83 83 82 82 82 82 82 81 81 81 81 80 80 80 80 79 80 79 80 80 79 79 78 78 79
68 69 72 73 73 72 71 71 71 72 72 73 73 73 76 79 80 80 80 80 80 80 80 81 81 81 80 80 80 82 82 82 82 83 83 82 82 83 84 84 83 82 82 83 83 81 81 81 81 80 79 80 79 78 79 79 80 80 80 79 79 78 78
68 69 69 69 70 70 70 70 71 72 73 74 74 76 76 78 79 79 79 80 80 80 81 81 81 80 80 81 80 80 82 82 83 83 83 83 83 83 84 85 84 83 83 83 83 83 82 80 81 80 79 80 80 79 79 79 79 79 80 80 80 79 80
67 67 67 68 68 68 69 69 69 70 71 72 74 75 75 77 79 79 79 79 80 80 80 80 80 81 81 80 80 79 80 82 82 82 83 83 84 84 84 85 85 84 83 83 83 82 82 82 81 81 79 80 80 80 79 79 79 79 80 80 80 79 80
67 66 66 66 66 67 68 68 69 69 70 71 72 73 73 76 78 79 78 78 79 80 80 80 79 80 80 80 80 79 80 81 81 82 83 83 84 85 84 85 85 85 84 84 84 83 83 83 81 81 81 80 81 80 79 79 79 78 79 80 80 80 80
67 66 66 67 66 66 65 67 68 69 70 71 71 71 71 70 71 73 74 74 74 74 75 77 79 79 79 79 78 75 72 73 75 78 80 83 82 83 85 85 85 85 85 84 84 84 84 84 83 81 81 81 81 81 80 79 79 78 78 79 80 80 79
65 65 65 65 65 65 65 66 66 68 68 69 70 69 69 70 70 70 71 71 71 71 72 71 72 73 76 75 73 73 74 74 75 76 75 78 80 81 82 83 83 84 84 84 84 85 85 85 85 82 81 81 80 81 81 81 80 80 79 78 78 80 79
63 63 64 64 65 65 65 66 66 67 68 68 69 69 70 70 70 70 71 71 72 72 72 72 72 72 70 71 72 72 73 74 74 74 74 74 76 76 77 78 79 82 83 83 84 84 83 83 83 83 82 80 80 80 82 80 79 80 80 80 79 77 80
63 63 64 64 64 65 65 66 67 67 67 67 68 69 69 69 70 70 70 70 71 70 71 72 71 71 71 70 71 72 72 73 73 73 73 72 73 74 75 76 77 76 77 79 81 81 80 80 80 81 81 81 81 80 80 79 79 78 72 72 74 78 77
63 63 64 64 64 65 65 65 66 66 66 66 67 68 68 69 70 70 70 70 70 70 71 71 70 71 71 71 71 72 72 72 72 72 71 71 72 72 72 74 75 75 75 76 76 76 78 79 78 77 79 79 78 78 77 77 79 70 69 70 70 75 78
63 63 64 64 64 65 65 65 65 66 66 67 67 68 68 69 69 69 70 70 71 71 72 71 71 70 71 71 71 71 71 71 71 71 71 71 71 72 71 71 72 73 74 74 74 74 75 76 76 75 76 76 76 76 76 76 72 67 69 68 68 68 76
63 63 64 64 64 65 65 66 66 66 67 67 67 68 68 69 68 68 69 70 70 71 71 71 71 71 71 71 71 71 71 71 71 71 71 72 72 71 71 72 72 71 72 73 72 72 73 74 74 74 74 75 75 75 75 76 71 66 67 67 67 67 71
62 62 63 63 63 64 65 66 66 67 67 67 68 67 67 67 68 68 68 69 69 69 69 69 69 69 70 70 70 70 71 72 72 71 72 72 72 72 71 71 70 71 72 73 71 71 71 71 72 73 74 74 74 74 75 76 64 63 64 64 65 67 73
61 61 61 62 61 62 64 65 66 66 66 68 67 67 67 67 68 67 67 68 68 68 68 69 69 69 69 69 69 70 71 71 71 71 71 70 70 71 71 71 71 71 72 72 71 72 72 72 72 72 72 73 73 73 73 69 60 62 62 63 63 68 74
65 64 62 62 62 62 63 64 65 67 67 67 67 67 66 67 67 67 67 66 66 67 67 67 67 68 68 69 70 70 70 70 69 70 69 69 70 69 70 69 70 70 70 69 70 70 71 72 72 72 72 73 73 72 71 71 62 59 59 60 61 66 73
66 67 66 66 65 65 64 65 66 66 66 66 66 68 68 68 67 66 66 66 66 66 66 66 66 67 68 68 69 69 70 70 70 69 69 68 69 69 69 69 69 69 71 70 70 70 71 72 71 72 73 73 73 73 71 69 63 58 58 57 59 67 75
65 66 66 66 66 65 66 65 65 65 65 65 64 66 68 67 67 67 66 66 66 66 66 65 66 66 67 67 68 69 69 70 69 69 69 69 69 69 69 69 69 70 71 70 70 70 71 72 71 71 72 73 73 76 73 68 66 59 56 58 58 65 75
62 64 65 66 66 66 66 66 67 66 65 64 65 66 66 68 68 67 67 67 67 66 66 66 67 68 68 68 68 68 68 70 71 71 71 70 70 69 69 71 71 70 70 69 69 70 70 72 71 70 71 72 73 73 70 66 66 65 55 56 60 63 71
64 64 63 64 65 67 66 66 66 66 66 65 66 67 67 66 64 63 65 66 65 65 67 67 68 67 66 68 68 68 68 69 69 69 69 70 69 70 71 70 70 70 70 69 69 69 68 69 69 69 70 71 70 68 67 67 65 63 55 54 59 64 68
63 64 65 65 66 65 64 65 65 65 66 66 68 69 68 67 65 64 64 63 64 66 69 68 68 68 68 67 68 68 68 69 70 70 70 70 70 69 68 68 71 70 69 70 69 68 68 68 68 67 67 67 68 68 67 69 69 66 60 55 54 59 64
57 58 59 60 62 65 65 63 63 63 63 65 65 66 67 67 64 63 63 63 63 67 67 68 68 67 68 68 67 68 68 68 70 70 69 68 68 67 64 64 63 65 68 69 68 67 67 67 66 66 65 65 65 66 66 66 68 68 67 59 54 54 57
56 57 58 60 60 61 63 61 61 62 62 62 63 63 63 63 62 62 61 61 63 64 67 67 68 67 67 68 67 66 66 67 68 68 68 68 67 64 63 62 63 63 61 62 68 67 67 66 65 65 64 63 63 65 65 66 66 67 67 64 57 54 54
56 56 56 56 58 60 59 58 58 59 60 60 61 61 60 60 61 62 61 61 63 62 63 65 66 67 67 66 67 68 66 65 66 66 66 66 65 64 63 62 63 61 62 62 61 67 66 66 65 64 64 65 64 64 63 63 63 63 65 66 64 59 56
56 56 57 57 57 59 57 58 58 58 58 58 59 59 60 59 59 58 58 60 62 62 62 64 65 66 65 66 66 67 68 65 64 65 66 66 65 62 61 60 60 60 59 60 62 63 66 66 66 64 64 64 65 64 63 63 62 62 61 63 64 64 60
56 56 56 56 58 59 57 57 57 57 57 56 57 58 59 58 59 58 59 60 60 61 61 64 64 63 62 61 63 64 66 65 63 62 62 62 63 64 63 61 58 59 59 59 59 61 63 67 66 65 65 64 62 63 63 63 61 60 60 60 60 61 62
55 56 56 56 58 58 55 55 54 55 55 55 55 56 56 57 57 57 58 59 59 59 61 63 64 61 60 61 62 64 64 65 68 63 59 59 58 59 61 63 62 59 58 57 56 58 60 61 63 64 65 64 64 62 62 61 61 59 56 57 57 58 59
54 55 56 56 58 57 54 55 55 54 54 54 53 54 55 55 56 57 57 58 58 57 59 62 63 60 58 59 60 62 66 63 63 60 60 58 56 54 53 56 60 59 57 57 55 55 57 61 60 60 60 62 61 61 59 60 60 58 53 53 49 50 55
55 55 57 57 58 57 57 56 54 54 55 54 54 54 55 54 54 55 57 57 57 57 57 60 61 58 57 59 60 62 62 62 62 62 61 61 59 57 57 53 48 52 57 55 53 48 44 50 56 57 59 58 56 55 57 57 56 48 44 42 42 42 43
56 56 57 57 57 56 56 56 57 55 55 53 54 55 56 56 54 54 56 56 57 57 56 56 58 58 57 59 59 62 62 61 61 60 60 61 59 60 59 58 55 44 45 51 50 46 42 42 44 50 55 59 57 54 48 46 44 41 40 41 41 40 40
57 57 57 57 57 57 57 57 57 56 56 54 55 54 54 55 55 54 56 56 56 56 55 56 56 55 56 57 58 62 62 59 60 61 60 59 60 60 60 60 58 58 46 43 47 45 42 42 42 42 44 47 52 59 57 50 44 41 40 39 40 40 40
MSLP
1013.19 1013.31 1013.19 1012.79 1012.87 1012.83 1012.95 1012.95 1013.03 1013.39 1013.63 1013.87 1013.99 1014.31 1014.59 1014.79 1015.07 1015.39 1015.79 1016.11 1016.43 1016.83 1016.83 1016.87 1017.03 1017.15 1017.39 1017.47 1017.51 1017.55 1017.59 1017.75 1017.87 1018.11 1018.27 1018.39 1018.43 1018.63 1018.87 1018.91 1019.03 1019.11 1019.11 1019.31 1019.31 1019.31 1019.23 1019.19 1019.27 1019.31 1019.39 1019.47 1019.51 1019.59 1019.63 1019.63 1019.75 1019.79 1019.79 1019.87 1019.95 1020.03 1020.07
1013.39 1013.31 1013.23 1012.91 1012.87 1012.71 1012.63 1012.51 1012.71 1012.99 1013.35 1013.59 1013.67 1014.03 1014.27 1014.59 1014.87 1015.27 1015.55 1015.75 1016.03 1016.35 1016.55 1016.71 1016.91 1017.07 1017.19 1017.35 1017.35 1017.47 1017.63 1017.71 1017.75 1017.83 1018.03 1018.23 1018.23 1018.35 1018.31 1018.55 1018.71 1018.87 1018.87 1018.91 1018.91 1018.95 1018.99 1019.03 1019.07 1019.23 1019.39 1019.39 1019.43 1019.43 1019.51 1019.59 1019.67 1019.75 1019.79 1019.87 1020.03 1020.11 1020.07
1013.07 1013.15 1013.07 1012.91 1012.75 1012.75 1012.59 1012.43 1012.47 1012.59 1012.87 1013.23 1013.35 1013.79 1014.03 1014.31 1014.47 1014.83 1015.27 1015.63 1015.95 1016.15 1016.27 1016.47 1016.67 1016.87 1016.99 1017.11 1017.31 1017.47 1017.47 1017.59 1017.75 1017.83 1018.07 1018.15 1018.19 1018.19 1018.15 1018.23 1018.39 1018.59 1018.59 1018.63 1018.71 1018.83 1018.75 1018.91 1018.91 1018.99 1019.15 1019.31 1019.31 1019.39 1019.39 1019.55 1019.63 1019.67 1019.71 1019.79 1019.91 1020.07 1020.15
1012.83 1012.91 1012.87 1012.63 1012.43 1012.35 1012.27 1012.11 1012.31 1012.35 1012.43 1012.67 1012.91 1013.27 1013.63 1013.95 1014.07 1014.35 1014.71 1015.11 1015.67 1015.99 1016.31 1016.27 1016.39 1016.67 1016.83 1017.03 1017.19 1017.35 1017.43 1017.43 1017.43 1017.59 1017.71 1017.79 1017.95 1017.91 1018.15 1018.23 1018.27 1018.35 1018.59 1018.63 1018.51 1018.55 1018.59 1018.67 1018.87 1018.91 1018.95 1019.11 1019.19 1019.23 1019.31 1019.43 1019.51 1019.59 1019.63 1019.71 1019.87 1019.91 1019.99
1012.43 1012.43 1012.67 1012.79 1012.71 1012.63 1012.51 1012.35 1012.23 1012.27 1012.35 1012.35 1012.47 1012.75 1013.11 1013.43 1013.79 1014.19 1014.55 1014.71 1014.99 1015.59 1015.67 1015.83 1015.99 1016.19 1016.39 1016.55 1016.79 1016.95 1017.15 1017.23 1017.27 1017.27 1017.43 1017.51 1017.63 1017.75 1018.03 1018.19 1018.23 1018.31 1018.31 1018.31 1018.31 1018.43 1018.55 1018.71 1018.79 1018.87 1018.95 1018.99 1019.11 1019.15 1019.27 1019.27 1019.39 1019.43 1019.55 1019.63 1019.87 1019.87 1019.95
1012.51 1012.55 1012.51 1012.71 1012.71 1012.59 1012.43 1012.27 1012.07 1011.99 1012.07 1012.27 1012.43 1012.79 1012.99 1013.31 1013.63 1014.11 1014.35 1014.63 1014.95 1015.07 1015.27 1015.59 1015.87 1016.03 1016.35 1016.39 1016.47 1016.67 1016.83 1016.95 1016.99 1017.07 1017.23 1017.35 1017.55 1017.79 1017.91 1017.95 1018.03 1018.07 1018.23 1018.19 1018.15 1018.23 1018.27 1018.51 1018.63 1018.75 1018.91 1018.91 1018.99 1019.11 1019.19 1019.31 1019.31 1019.35 1019.47 1019.59 1019.71 1019.79 1019.91
1012.39 1012.31 1012.35 1012.47 1012.59 1012.51 1012.51 1012.43 1012.19 1012.11 1011.87 1011.79 1011.91 1012.31 1012.79 1013.19 1013.55 1013.83 1014.11 1014.47 1014.67 1015.19 1015.43 1015.55 1015.59 1015.79 1015.99 1016.11 1016.31 1016.47 1016.75 1016.83 1016.91 1017.03 1016.99 1017.15 1017.27 1017.55 1017.59 1017.63 1017.71 1017.79 1017.79 1017.87 1018.11 1018.07 1018.27 1018.35 1018.43 1018.51 1018.63 1018.71 1018.87 1019.03 1019.15 1019.27 1019.35 1019.27 1019.39 1019.59 1019.71 1019.71 1019.71
1012.31 1012.51 1012.23 1012.19 1012.31 1012.71 1012.55 1012.39 1012.07 1011.99 1012.23 1012.47 1012.51 1012.43 1012.75 1012.87 1013.27 1013.67 1013.99 1014.11 1014.39 1014.71 1015.03 1015.23 1015.39 1015.51 1015.71 1015.83 1015.99 1016.27 1016.47 1016.55 1016.63 1016.75 1016.83 1017.03 1017.15 1017.35 1017.39 1017.47 1017.51 1017.51 1017.63 1017.87 1017.83 1017.87 1018.07 1018.15 1018.19 1018.27 1018.39 1018.59 1018.75 1018.83 1018.95 1019.07 1019.15 1019.19 1019.27 1019.59 1019.71 1019.75 1019.67
1012.63 1012.63 1012.27 1011.71 1011.79 1011.99 1012.19 1012.23 1011.99 1012.03 1012.27 1012.39 1012.91 1013.03 1012.59 1012.71 1013.03 1013.31 1013.55 1013.79 1014.03 1014.43 1014.67 1014.67 1014.83 1015.03 1015.31 1015.59 1015.87 1016.07 1016.15 1016.31 1016.51 1016.59 1016.75 1016.95 1017.03 1017.15 1017.15 1017.19 1017.23 1017.19 1017.51 1017.63 1017.67 1017.63 1017.75 1017.91 1017.99 1018.11 1018.27 1018.47 1018.59 1018.71 1018.87 1018.91 1019.03 1019.03 1019.19 1019.39 1019.55 1019.75 1019.75
1012.15 1011.59 1010.99 1011.23 1011.71 1011.99 1012.07 1012.11 1012.19 1012.23 1012.43 1012.67 1012.87 1012.83 1013.11 1012.83 1012.75 1012.95 1013.19 1013.39 1013.67 1014.03 1014.19 1014.39 1014.63 1014.83 1015.19 1015.47 1015.71 1015.83 1016.03 1016.27 1016.31 1016.47 1016.63 1016.87 1016.87 1016.95 1016.83 1016.87 1016.95 1016.99 1017.19 1017.31 1017.39 1017.63 1017.55 1017.59 1017.75 1017.95 1018.19 1018.39 1018.51 1018.59 1018.67 1018.79 1018.87 1018.91 1018.99 1019.15 1019.31 1019.47 1019.59
1012.71 1012.07 1012.03 1012.07 1012.11 1012.35 1012.47 1012.39 1012.31 1012.23 1012.15 1012.31 1012.47 1012.39 1012.51 1012.79 1012.75 1012.79 1012.99 1013.11 1013.39 1013.59 1013.71 1013.99 1014.23 1014.63 1014.95 1015.27 1015.63 1015.79 1015.95 1016.15 1016.23 1016.43 1016.55 1016.63 1016.63 1016.67 1016.59 1016.59 1016.67 1016.75 1016.95 1017.11 1017.31 1017.31 1017.43 1017.55 1017.55 1017.83 1018.07 1018.31 1018.35 1018.43 1018.51 1018.55 1018.59 1018.79 1018.87 1018.91 1018.95 1019.11 1019.23
1013.67 1013.63 1013.47 1013.19 1012.99 1012.79 1012.83 1012.75 1012.55 1012.35 1012.35 1012.35 1012.31 1012.27 1012.55 1012.91 1012.79 1012.59 1012.67 1012.87 1012.91 1013.31 1013.63 1013.83 1014.03 1014.35 1014.75 1015.07 1015.47 1015.75 1015.87 1015.91 1016.07 1016.23 1016.35 1016.39 1016.39 1016.39 1016.39 1016.35 1016.43 1016.59 1016.67 1016.75 1017.03 1017.11 1017.19 1017.35 1017.51 1017.63 1017.91 1017.95 1017.99 1018.07 1018.15 1018.19 1018.31 1018.47 1018.59 1018.67 1018.71 1018.83 1018.91
1014.15 1013.95 1014.15 1014.43 1014.47 1014.15 1013.55 1013.19 1012.87 1013.03 1012.95 1012.83 1013.03 1013.11 1013.15 1013.19 1012.95 1012.55 1012.55 1012.79 1012.91 1012.95 1013.27 1013.63 1013.95 1014.31 1014.67 1014.95 1015.23 1015.55 1015.71 1015.75 1015.83 1015.91 1016.07 1016.11 1016.11 1016.07 1016.15 1016.27 1016.27 1016.35 1016.51 1016.47 1016.63 1016.87 1017.07 1017.11 1017.27 1017.31 1017.47 1017.63 1017.67 1017.83 1017.87 1017.95 1018.07 1018.19 1018.31 1018.39 1018.43 1018.55 1018.71
1014.15 1014.19 1013.91 1013.79 1014.11 1014.43 1014.87 1014.91 1014.39 1013.83 1013.43 1013.43 1013.47 1013.43 1013.75 1014.27 1014.63 1014.31 1013.99 1013.75 1013.55 1013.75 1013.99 1013.75 1013.87 1014.23 1014.59 1014.83 1015.19 1015.63 1015.95 1016.11 1015.99 1015.87 1015.79 1015.67 1015.75 1015.87 1015.91 1015.95 1016.03 1016.11 1016.07 1016.15 1016.47 1016.59 1016.67 1016.83 1016.95 1017.03 1017.11 1017.27 1017.39 1017.43 1017.51 1017.71 1017.87 1017.95 1018.03 1018.11 1018.23 1018.35 1018.47
1014.59 1014.55 1014.67 1014.91 1014.71 1014.43 1014.63 1015.23 1015.47 1015.03 1014.59 1014.43 1013.95 1013.67 1013.79 1014.15 1014.55 1014.87 1015.11 1015.03 1015.07 1015.23 1015.07 1014.47 1014.63 1015.07 1014.87 1014.95 1015.39 1015.59 1015.55 1015.71 1015.75 1015.71 1015.75 1015.75 1015.67 1015.71 1015.75 1015.71 1015.75 1015.79 1015.83 1015.95 1016.11 1016.15 1016.19 1016.23 1016.43 1016.83 1017.07 1017.07 1017.15 1017.27 1017.35 1017.55 1017.67 1017.67 1017.79 1017.99 1018.07 1018.03 1018.23
1015.47 1015.55 1015.59 1015.47 1015.39 1015.11 1014.83 1014.87 1015.19 1015.39 1014.99 1014.71 1014.63 1014.27 1013.79 1013.59 1013.71 1013.95 1014.31 1014.71 1014.91 1015.23 1015.51 1015.59 1015.03 1015.51 1016.47 1015.99 1015.35 1015.51 1015.47 1015.47 1015.55 1015.67 1015.87 1015.99 1015.87 1015.91 1015.79 1015.67 1015.59 1015.55 1015.75 1015.87 1015.91 1015.95 1015.99 1016.15 1016.27 1016.51 1016.79 1017.03 1017.15 1017.19 1017.27 1017.43 1017.39 1017.35 1017.35 1017.47 1017.71 1017.91 1017.99
1016.11 1016.27 1016.19 1015.75 1015.51 1015.11 1015.07 1015.03 1015.23 1015.31 1015.27 1015.07 1014.87 1014.75 1014.43 1014.23 1013.87 1013.75 1014.11 1014.47 1014.79 1015.11 1015.27 1015.47 1016.11 1016.23 1016.11 1016.91 1016.11 1015.43 1015.39 1015.39 1015.51 1015.67 1015.95 1016.11 1015.95 1015.87 1015.91 1015.79 1015.63 1015.63 1015.67 1015.71 1015.75 1015.87 1015.99 1016.15 1016.43 1016.55 1016.63 1016.79 1016.99 1017.19 1017.27 1017.27 1017.19 1017.11 1017.31 1017.43 1017.59 1017.75 1017.87
1016.43 1016.39 1016.23 1016.03 1015.79 1015.63 1015.43 1015.15 1015.15 1015.19 1015.39 1015.07 1014.83 1014.63 1014.71 1014.79 1014.75 1014.51 1014.59 1014.67 1014.95 1014.99 1014.91 1015.23 1016.11 1016.59 1016.55 1016.59 1016.51 1015.47 1015.47 1015.67 1015.79 1015.91 1016.11 1016.19 1016.27 1016.07 1015.95 1015.91 1015.75 1015.71 1015.75 1015.83 1015.99 1015.95 1015.91 1016.15 1016.27 1016.35 1016.47 1016.59 1016.75 1016.99 1017.11 1017.15 1016.99 1017.11 1017.19 1017.27 1017.39 1017.55 1017.71
1016.43 1016.35 1016.31 1016.19 1016.11 1015.99 1015.71 1015.55 1015.47 1015.15 1015.15 1015.11 1014.91 1014.59 1014.55 1014.55 1014.95 1015.07 1014.87 1014.95 1014.83 1014.59 1014.67 1015.11 1015.71 1016.19 1016.63 1016.95 1016.79 1015.79 1015.23 1015.39 1015.67 1015.95 1016.11 1016.27 1016.35 1016.31 1016.23 1016.27 1016.27 1016.07 1015.95 1015.95 1015.91 1015.99 1016.15 1016.23 1016.35 1016.43 1016.39 1016.47 1016.75 1016.95 1016.99 1016.99 1016.91 1017.03 1017.03 1017.11 1017.23 1017.39 1017.59
1016.55 1016.51 1016.43 1016.35 1016.19 1016.03 1015.87 1015.67 1015.47 1015.31 1015.23 1015.15 1015.03 1014.87 1014.75 1014.71 1014.99 1015.07 1014.87 1014.95 1014.95 1014.87 1014.83 1014.95 1015.43 1015.79 1016.15 1016.51 1016.67 1015.95 1015.27 1015.35 1015.59 1015.91 1016.11 1016.23 1016.35 1016.39 1016.35 1016.39 1016.39 1016.31 1016.19 1016.19 1016.23 1016.39 1016.51 1016.55 1016.59 1016.59 1016.59 1016.59 1016.67 1016.83 1016.87 1016.87 1016.83 1016.99 1017.07 1017.11 1017.15 1017.23 1017.35
1016.95 1016.99 1016.91 1016.75 1016.55 1016.23 1015.99 1015.83 1015.59 1015.39 1015.19 1015.11 1015.11 1015.07 1015.03 1015.19 1014.99 1015.03 1015.11 1015.19 1015.43 1015.31 1015.31 1015.39 1015.63 1015.71 1015.71 1016.19 1016.59 1016.31 1015.87 1015.71 1015.71 1015.83 1015.95 1016.15 1016.35 1016.39 1016.43 1016.43 1016.55 1016.31 1016.23 1016.43 1016.79 1017.23 1017.75 1017.95 1017.79 1017.35 1017.03 1016.83 1016.75 1016.83 1016.95 1016.91 1016.95 1017.03 1017.03 1017.03 1017.07 1017.11 1017.19
1017.07 1017.15 1017.35 1017.27 1017.11 1016.83 1016.35 1015.99 1015.87 1015.67 1015.51 1015.19 1015.11 1015.19 1015.19 1015.43 1015.31 1015.35 1015.59 1015.39 1015.43 1015.47 1015.47 1015.59 1015.71 1015.79 1015.83 1016.15 1016.47 1016.35 1015.95 1015.79 1015.95 1016.03 1016.15 1016.27 1016.31 1016.35 1016.43 1016.43 1016.75 1016.63 1016.51 1016.71 1016.75 1016.55 1016.79 1017.11 1017.27 1017.59 1017.83 1017.59 1017.19 1016.95 1017.03 1017.07 1017.23 1017.19 1017.07 1016.99 1017.03 1017.11 1017.19
1016.59 1017.03 1017.19 1017.23 1017.15 1017.11 1016.67 1016.31 1015.99 1015.71 1015.47 1015.39 1015.31 1015.35 1015.47 1015.43 1015.31 1015.31 1015.47 1015.59 1015.71 1015.75 1015.91 1015.91 1016.07 1016.15 1016.11 1016.19 1016.23 1016.23 1016.15 1016.19 1016.31 1016.39 1016.27 1016.15 1016.11 1016.19 1016.23 1016.27 1016.31 1016.63 1016.95 1017.27 1017.03 1017.03 1016.91 1016.87 1016.87 1016.83 1016.91 1016.91 1016.95 1016.95 1016.91 1016.95 1017.07 1017.07 1016.99 1016.91 1016.87 1016.99 1016.99
1016.43 1016.51 1016.75 1016.95 1016.99 1016.83 1016.67 1016.47 1016.27 1016.11 1015.95 1015.95 1015.79 1015.59 1015.47 1015.51 1015.71 1015.75 1015.79 1015.99 1016.15 1016.31 1016.39 1016.43 1016.55 1016.43 1016.39 1016.43 1016.35 1016.39 1016.43 1016.39 1016.39 1016.43 1016.43 1016.35 1016.27 1016.15 1016.07 1016.07 1016.11 1016.59 1016.99 1017.35 1017.27 1017.31 1016.99 1016.87 1016.79 1016.59 1016.59 1016.75 1016.83 1016.67 1016.71 1016.67 1016.83 1016.95 1016.91 1016.95 1016.87 1016.79 1016.67
1016.91 1016.79 1016.83 1016.95 1017.03 1017.11 1016.91 1016.79 1016.59 1016.47 1016.31 1016.19 1016.31 1016.27 1016.15 1016.11 1016.03 1016.23 1016.47 1016.43 1016.59 1016.71 1016.91 1016.99 1016.95 1016.79 1016.63 1016.63 1016.51 1016.35 1016.31 1016.27 1016.31 1016.31 1016.23 1016.35 1016.51 1016.55 1016.55 1016.47 1016.47 1016.43 1016.59 1016.87 1016.87 1016.79 1016.75 1016.75 1016.99 1017.03 1016.91 1016.75 1016.63 1016.51 1016.55 1016.63 1016.87 1017.07 1017.03 1016.91 1016.83 1016.71 1016.55
1017.55 1017.35 1017.27 1017.15 1017.07 1017.07 1016.99 1016.71 1016.55 1016.71 1016.83 1016.87 1016.87 1016.59 1016.47 1016.23 1016.23 1016.51 1016.71 1016.79 1016.79 1017.03 1017.27 1017.35 1017.27 1016.99 1016.79 1016.71 1016.63 1016.39 1016.27 1016.15 1016.19 1016.27 1016.31 1016.43 1016.47 1016.43 1016.43 1016.43 1016.47 1016.43 1016.47 1016.39 1016.27 1016.23 1016.11 1016.11 1016.31 1016.63 1016.83 1016.79 1016.71 1016.67 1016.75 1016.99 1017.07 1016.99 1017.03 1016.83 1016.63 1016.47 1016.39
1017.67 1017.47 1017.55 1017.51 1017.51 1017.27 1017.23 1017.11 1017.03 1017.07 1017.03 1016.95 1016.79 1016.67 1016.59 1016.63 1016.91 1017.23 1017.23 1017.15 1017.11 1017.35 1017.55 1017.43 1017.23 1017.07 1016.95 1016.79 1016.63 1016.55 1016.43 1016.43 1016.47 1016.63 1016.67 1016.59 1016.59 1016.55 1016.55 1016.59 1016.63 1016.51 1016.47 1016.43 1016.47 1016.59 1016.67 1016.55 1016.35 1016.43 1016.55 1016.55 1016.59 1016.71 1016.87 1016.95 1017.15 1017.23 1017.19 1017.03 1016.67 1016.35 1016.35
1017.91 1017.83 1017.75 1017.67 1017.67 1017.67 1017.67 1017.67 1017.63 1017.47 1017.31 1017.11 1016.91 1016.83 1016.87 1016.91 1017.31 1017.59 1017.63 1017.67 1017.71 1017.63 1017.43 1017.39 1017.35 1017.23 1017.15 1017.03 1016.83 1016.63 1016.43 1016.31 1016.27 1016.51 1016.79 1016.79 1016.71 1016.87 1016.91 1016.71 1016.39 1016.31 1016.31 1016.35 1016.43 1016.71 1016.99 1016.91 1016.83 1016.87 1016.87 1016.83 1017.03 1017.15 1017.11 1017.07 1017.19 1017.35 1017.31 1017.27 1017.11 1016.71 1016.27
1018.51 1018.59 1018.51 1018.31 1018.19 1018.07 1018.07 1018.23 1018.31 1018.27 1018.15 1017.87 1017.63 1017.47 1017.35 1017.27 1017.51 1017.71 1017.71 1017.79 1017.79 1017.55 1017.51 1017.47 1017.43 1017.35 1017.27 1017.27 1017.23 1017.15 1017.07 1016.87 1016.79 1016.87 1016.99 1017.19 1017.19 1017.23 1017.35 1017.23 1017.19 1016.99 1016.67 1016.63 1016.87 1017.11 1017.27 1017.27 1017.35 1017.35 1017.31 1017.27 1017.35 1017.27 1017.27 1017.31 1017.31 1017.39 1017.47 1017.39 1017.27 1017.11 1016.67
1018.83 1018.83 1018.79 1018.71 1018.63 1018.55 1018.47 1018.51 1018.59 1018.67 1018.63 1018.47 1018.35 1018.27 1018.19 1018.07 1018.15 1018.15 1018.15 1018.23 1017.99 1017.71 1017.47 1017.43 1017.43 1017.55 1017.51 1017.47 1017.59 1017.55 1017.43 1017.39 1017.39 1017.35 1017.35 1017.51 1017.59 1017.71 1017.79 1017.75 1017.59 1017.39 1017.43 1017.19 1016.99 1017.15 1017.31 1017.39 1017.47 1017.55 1017.63 1017.75 1017.75 1017.63 1017.55 1017.51 1017.55 1017.63 1017.67 1017.75 1017.67 1017.55 1017.19
1019.03 1019.15 1019.23 1019.19 1019.15 1018.91 1018.91 1018.99 1019.07 1019.07 1019.11 1019.07 1018.99 1018.91 1018.83 1018.75 1018.63 1018.55 1018.67 1018.63 1018.27 1018.19 1018.03 1017.87 1017.71 1017.63 1017.63 1017.59 1017.59 1017.71 1017.83 1017.71 1017.71 1017.79 1017.79 1017.83 1017.91 1018.03 1018.11 1018.07 1017.79 1017.75 1017.71 1017.55 1017.43 1017.15 1017.31 1017.51 1017.51 1017.63 1017.67 1017.75 1017.91 1017.99 1018.07 1018.03 1018.03 1018.03 1017.91 1017.83 1017.87 1017.79 1017.67
1019.07 1019.15 1019.27 1019.35 1019.39 1019.35 1019.39 1019.35 1019.35 1019.39 1019.51 1019.55 1019.51 1019.43 1019.35 1019.27 1019.23 1019.27 1019.31 1018.99 1018.71 1018.47 1018.31 1018.07 1018.03 1017.99 1018.03 1017.95 1017.83 1017.71 1017.71 1017.87 1017.99 1018.11 1018.23 1018.19 1018.15 1018.27 1018.39 1018.43 1018.31 1018.23 1018.27 1018.11 1017.79 1017.59 1017.43 1017.71 1017.79 1017.91 1017.91 1017.95 1018.03 1018.19 1018.23 1018.23 1018.23 1018.39 1018.39 1018.23 1017.95 1017.91 1018.11
1019.31 1019.23 1019.27 1019.43 1019.71 1019.75 1019.83 1019.79 1019.83 1019.83 1019.83 1019.91 1019.95 1019.87 1019.75 1019.63 1019.59 1019.59 1019.47 1019.31 1019.15 1018.91 1018.71 1018.47 1018.43 1018.43 1018.31 1018.19 1017.99 1017.87 1017.91 1018.03 1018.19 1018.31 1018.47 1018.55 1018.47 1018.35 1018.51 1018.55 1018.59 1018.47 1018.51 1018.47 1018.15 1017.91 1017.83 1017.59 1017.91 1018.11 1018.15 1018.31 1018.39 1018.35 1018.35 1018.43 1018.63 1018.71 1018.71 1018.67 1018.43 1018.39 1018.23
1019.63 1019.59 1019.51 1019.51 1019.67 1019.83 1020.07 1020.23 1020.31 1020.31 1020.23 1020.19 1020.11 1020.03 1019.95 1019.87 1019.83 1019.75 1019.63 1019.59 1019.47 1019.31 1019.07 1018.91 1018.87 1018.95 1018.83 1018.59 1018.31 1018.15 1018.07 1018.15 1018.27 1018.55 1018.79 1018.99 1018.95 1018.91 1018.75 1018.63 1018.83 1018.95 1018.83 1018.67 1018.87 1018.47 1018.11 1018.39 1018.35 1018.39 1018.43 1018.59 1018.55 1018.59 1018.55 1018.67 1018.75 1019.03 1019.27 1019.19 1019.11 1018.83 1018.43
1019.67 1019.71 1019.71 1019.79 1019.79 1019.79 1019.87 1020.15 1020.39 1020.51 1020.47 1020.43 1020.31 1020.15 1020.07 1020.03 1019.99 1019.91 1019.75 1019.71 1019.63 1019.55 1019.35 1019.31 1019.27 1019.35 1019.31 1019.15 1018.83 1018.63 1018.39 1018.47 1018.63 1018.83 1018.95 1019.07 1019.27 1019.55 1019.63 1019.31 1018.99 1019.07 1019.07 1019.15 1019.39 1019.11 1018.83 1018.59 1018.67 1018.87 1018.99 1018.91 1018.95 1018.91 1018.99 1018.95 1019.03 1019.31 1019.75 1019.79 1019.91 1019.63 1019.11
1019.59 1019.79 1019.79 1019.71 1019.83 1019.87 1019.95 1019.99 1020.11 1020.27 1020.31 1020.43 1020.35 1020.23 1020.19 1020.11 1020.03 1019.95 1019.83 1019.71 1019.63 1019.59 1019.47 1019.43 1019.43 1019.47 1019.55 1019.47 1019.31 1019.19 1018.95 1018.75 1018.67 1018.67 1018.79 1018.95 1019.07 1019.19 1019.59 1019.87 1019.79 1019.47 1019.23 1019.51 1019.75 1020.03 1019.79 1019.23 1019.19 1019.31 1019.11 1019.27 1019.75 1019.71 1019.15 1019.31 1019.59 1020.07 1020.03 1019.99 1019.91 1019.91 1019.75
1019.35 1019.63 1019.59 1019.71 1019.95 1020.03 1020.03 1020.07 1020.03 1020.07 1020.07 1020.07 1020.11 1020.11 1020.11 1020.03 1019.99 1019.95 1019.83 1019.75 1019.67 1019.67 1019.71 1019.63 1019.63 1019.67 1019.71 1019.75 1019.71 1019.47 1019.39 1019.23 1019.11 1018.99 1018.91 1018.91 1018.99 1019.03 1019.11 1019.31 1019.63 1020.11 1020.23 1019.91 1020.07 1019.87 1019.71 1019.59 1019.43 1019.35 1019.35 1019.27 1019.51 1019.91 1019.95 1019.95 1020.03 1020.11 1020.19 1020.03 1019.91 1019.99 1019.91
1018.95 1019.03 1019.15 1019.39 1019.55 1019.75 1019.91 1020.07 1020.15 1020.15 1020.11 1020.07 1019.99 1019.91 1019.87 1019.87 1019.87 1019.91 1019.87 1019.79 1019.75 1019.75 1019.71 1019.71 1019.75 1019.99 1020.03 1019.91 1019.87 1019.75 1019.63 1019.59 1019.47 1019.35 1019.27 1019.11 1019.03 1019.03 1019.03 1018.87 1019.03 1019.43 1020.11 1020.43 1019.91 1019.95 1019.99 1019.91 1019.79 1019.71 1019.67 1019.67 1019.59 1019.47 1019.47 1019.67 1019.83 1019.87 1019.75 1019.59 1019.47 1019.39 1019.67
Wind_Speed
10 7 5 6 8 10 14 16 15 13 14 13 14 14 14 14 13 12 12 13 13 11 10 9 9 8 9 8 7 6 6 6 6 7 6 6 6 6 6 5 6 6 6 6 5 6 5 4 5 6 5 4 4 4 4 4 4 4 3 2 1 1 2
12 11 7 6 6 9 13 15 14 13 12 12 12 14 14 14 13 13 13 13 14 13 12 11 10 9 9 8 7 6 6 7 7 6 6 5 5 5 6 6 6 6 6 6 6 4 4 5 5 5 5 5 5 4 4 4 4 4 3 3 3 2 1
14 12 8 6 7 6 12 13 13 13 13 12 12 14 15 15 15 15 14 13 13 12 11 12 11 10 8 8 8 7 6 7 7 8 8 7 7 7 6 6 6 6 6 5 5 5 4 4 4 5 6 6 5 5 5 4 4 4 4 3 3 3 2
15 13 10 7 6 5 8 13 14 13 13 13 13 16 16 16 15 14 14 15 14 13 13 12 12 11 9 9 9 7 7 8 9 8 8 7 7 6 5 5 5 5 5 6 6 6 5 5 5 4 6 5 5 5 5 5 5 4 4 4 3 3 4
14 14 10 8 7 5 5 8 13 13 14 13 13 15 16 16 15 13 13 14 15 15 14 14 11 11 9 9 8 7 8 8 8 8 7 6 6 6 6 6 6 7 7 6 5 6 5 5 5 5 5 5 5 4 5 4 5 4 4 4 4 3 4
13 13 11 8 7 6 4 5 10 14 14 15 14 14 15 16 13 16 14 14 13 13 12 12 12 11 11 10 9 8 7 7 7 7 8 7 7 7 7 7 7 7 6 7 5 5 6 6 6 6 6 6 6 5 5 5 5 5 4 4 5 4 4
11 12 11 9 7 6 4 2 3 3 8 13 13 13 14 14 15 14 13 13 13 13 12 13 13 12 11 10 9 9 9 8 7 8 8 8 8 8 7 6 6 7 7 5 5 5 5 6 7 7 7 7 6 5 5 5 5 5 4 4 4 4 4
4 7 8 7 6 5 3 5 6 7 2 1 3 13 15 15 14 14 14 14 13 13 13 13 13 12 10 10 10 10 9 9 7 7 7 8 8 8 8 8 7 7 6 7 6 6 6 6 6 6 7 7 6 5 6 6 6 5 4 5 4 4 3
9 3 3 10 9 11 7 5 7 7 6 9 5 3 13 15 15 15 15 15 13 14 14 14 13 12 10 10 10 10 10 9 9 8 8 8 7 9 9 8 8 7 8 8 7 6 6 6 6 5 6 6 6 6 6 6 6 5 5 5 5 5 4
10 10 11 4 6 7 7 6 5 6 8 9 8 9 7 12 14 14 14 15 14 15 15 14 12 11 10 10 10 10 10 10 9 10 9 9 7 9 9 8 8 7 8 8 7 7 6 6 6 5 5 5 5 6 5 6 6 6 6 7 6 6 6
1 5 4 5 9 8 6 7 7 9 10 11 11 12 11 10 12 14 14 14 15 14 14 13 11 11 11 11 10 10 10 11 10 10 10 9 7 9 9 9 8 7 8 7 7 7 7 6 6 6 6 7 7 6 6 6 6 6 6 5 5 6 6
6 7 7 4 2 3 5 3 3 4 4 5 9 11 9 9 12 14 14 14 14 14 12 12 10 11 12 11 11 10 11 11 11 11 11 10 8 8 8 8 8 8 7 8 9 8 8 8 7 7 7 7 7 7 6 5 6 7 6 6 5 6 6
5 8 8 11 11 9 5 3 6 4 0 2 3 4 1 5 11 13 13 13 13 13 13 11 10 11 11 11 11 10 11 11 11 10 10 10 9 7 7 8 8 8 9 8 9 9 9 8 8 7 7 8 7 7 7 6 6 6 6 6 5 6 6
6 6 7 7 6 8 11 12 10 4 1 2 5 8 9 12 12 8 3 2 3 4 1 3 10 11 10 11 9 5 6 4 2 1 5 9 9 8 7 8 8 9 9 9 9 9 10 10 9 8 7 8 8 7 7 6 6 5 5 5 5 5 5
10 9 8 8 8 8 8 8 9 6 7 6 6 10 11 10 10 11 11 12 13 11 7 8 10 5 3 8 8 8 7 4 2 3 4 4 8 9 8 7 7 8 9 9 10 9 10 9 9 8 8 7 7 7 6 7 6 5 5 5 5 5 6
10 10 8 6 3 3 6 9 8 4 4 3 3 5 8 10 11 10 10 9 9 9 9 10 7 9 6 1 8 7 7 6 5 5 3 2 2 2 3 3 4 7 9 9 10 9 8 8 8 8 9 7 6 6 6 5 5 7 11 7 4 4 4
8 5 4 6 5 6 6 6 7 5 5 3 3 4 4 5 7 10 11 9 9 10 8 7 5 5 7 2 2 6 6 7 7 5 4 2 3 4 2 2 3 3 5 7 8 8 6 6 5 6 6 7 7 7 5 6 6 10 9 6 3 2 3
11 9 9 7 7 6 6 7 9 9 7 6 6 8 7 7 6 7 8 8 8 8 8 8 6 5 4 0 4 3 5 5 4 5 4 2 2 2 2 1 2 5 4 5 5 4 5 6 7 6 6 6 6 6 6 7 7 10 10 8 6 5 4
9 9 8 8 8 7 7 7 6 6 5 5 5 7 8 9 8 7 6 5 4 6 8 8 7 4 2 4 6 3 4 4 4 4 3 1 0 0 2 3 3 2 2 4 3 3 4 5 6 6 5 6 7 6 6 6 8 12 11 9 6 5 5
8 7 7 7 7 7 6 5 6 7 9 8 6 7 7 8 9 7 7 6 4 5 5 6 4 4 3 2 6 4 1 1 2 2 1 0 1 1 1 1 1 2 2 1 2 2 2 2 3 3 4 5 6 6 5 5 7 10 10 9 8 7 5
7 7 7 7 8 8 7 7 6 7 8 9 7 6 6 6 6 6 6 5 5 5 6 6 5 4 3 3 3 3 3 2 1 0 0 1 2 2 2 2 2 2 2 2 5 7 9 10 7 3 0 2 3 4 5 3 4 5 7 8 9 8 6
7 7 9 8 7 6 6 7 8 10 10 8 8 8 7 7 6 8 8 7 7 5 5 5 5 4 3 3 2 1 2 3 3 3 3 3 2 2 1 1 5 3 2 5 4 4 6 5 2 1 5 7 2 3 3 2 1 2 4 6 7 7 5
7 8 8 7 7 7 7 8 8 8 9 10 10 9 8 6 7 9 10 10 8 8 7 7 6 6 5 5 4 5 5 4 4 3 3 3 2 1 1 1 3 2 4 4 1 1 2 4 5 6 7 7 5 3 3 3 3 1 3 4 5 5 5
8 9 8 7 7 9 9 10 11 10 9 9 9 8 8 8 8 9 9 10 9 8 7 6 5 4 5 4 3 4 4 3 3 2 2 1 0 0 0 1 2 0 5 7 7 6 6 4 4 5 6 6 6 5 5 4 1 1 4 5 6 7 6
8 8 8 7 7 8 8 8 9 9 10 12 13 9 7 7 8 9 8 9 8 8 8 7 6 5 5 5 5 5 5 4 3 2 2 2 3 4 3 1 2 2 1 1 2 2 6 8 7 5 4 4 3 7 5 3 0 1 4 5 6 5 4
6 7 8 8 8 7 7 8 11 11 11 11 11 10 9 10 10 10 9 9 8 9 8 7 5 5 5 5 5 5 5 3 3 3 3 2 4 3 3 3 2 1 2 3 3 4 4 4 6 8 6 3 3 4 1 2 1 3 7 6 4 5 1
5 5 6 5 5 5 7 8 8 9 9 7 7 8 9 10 10 9 8 7 8 8 7 6 5 6 5 5 6 6 5 4 4 4 5 3 2 1 2 2 3 3 5 5 3 2 4 3 2 3 4 4 4 4 4 3 2 4 7 9 6 6 6
6 6 5 5 6 5 7 7 8 9 8 6 7 7 7 9 10 7 6 6 7 6 4 4 4 4 5 6 6 6 7 6 5 5 6 6 5 5 7 8 3 5 5 3 4 4 3 3 1 3 4 5 5 4 5 5 8 4 7 9 10 3 9
6 6 6 6 6 6 6 7 8 8 7 7 7 6 4 8 8 6 5 6 3 2 2 2 3 4 4 5 6 6 6 6 7 6 6 7 8 8 8 8 10 9 3 3 4 4 4 4 4 5 5 6 5 5 5 5 6 7 6 9 9 9 5
5 6 6 6 5 5 5 7 6 7 7 6 6 6 6 5 6 4 5 4 3 2 3 3 5 7 6 5 5 5 6 6 6 6 6 6 6 7 8 8 7 7 8 7 1 5 4 5 5 5 6 6 6 5 4 5 5 8 11 9 11 10 8
4 5 4 5 5 5 5 6 7 7 7 7 7 7 7 6 5 5 6 5 5 5 5 3 3 4 4 4 4 4 4 5 6 6 7 7 7 7 6 6 6 8 7 7 6 1 5 4 4 6 6 6 6 6 5 5 6 6 8 10 9 10 12
3 3 4 4 4 5 5 6 7 7 7 7 7 7 6 7 7 6 5 6 6 6 5 4 4 4 4 4 3 5 6 7 6 7 6 6 7 7 5 5 6 6 7 7 6 6 2 5 4 4 4 5 5 5 4 4 5 5 5 6 7 6 8
1 1 2 3 3 4 5 5 5 5 5 6 5 5 4 5 5 5 5 7 7 7 7 5 5 5 5 5 4 3 4 6 5 5 5 5 4 5 4 4 5 6 6 5 6 6 6 4 5 3 3 5 4 4 4 4 4 4 4 4 4 3 5
3 1 0 1 1 4 4 4 4 4 4 4 4 4 4 4 4 4 5 5 6 6 6 5 5 5 4 4 4 4 4 4 8 7 5 5 5 5 4 4 6 6 5 5 5 5 8 7 5 4 4 4 3 4 4 5 4 4 4 5 5 5 4
4 4 3 2 2 3 3 4 4 4 3 2 3 3 4 4 4 4 5 4 4 4 5 5 4 4 5 5 5 5 3 4 4 4 5 5 6 6 4 4 4 5 4 5 4 3 3 5 6 6 6 5 4 4 5 4 4 4 5 5 5 5 5
4 4 4 4 3 4 4 3 3 3 3 1 1 1 2 3 3 3 4 4 4 4 4 3 4 5 5 4 5 4 4 4 4 4 5 4 5 6 6 8 8 6 4 4 8 10 7 3 5 3 4 6 5 4 4 3 2 6 8 7 7 7 7
5 4 5 4 5 5 6 5 4 3 2 3 2 1 0 0 1 2 3 3 4 4 3 3 4 4 4 5 5 4 3 3 4 4 3 4 4 4 6 5 4 7 9 9 9 9 9 9 9 11 9 7 5 4 6 5 2 3 4 5 6 6 7
5 6 5 4 6 7 6 6 6 5 5 3 3 3 2 1 1 0 0 1 2 3 3 4 4 5 3 4 4 4 3 4 4 4 4 3 2 1 3 4 6 5 7 8 9 9 10 11 11 10 11 10 8 5 5 4 3 4 5 6 6 6 6
Wind_Direction
204 209 197 190 189 177 172 174 174 174 170 171 174 168 170 169 170 170 173 175 177 175 179 177 178 177 183 189 187 188 182 175 177 176 181 183 180 172 175 182 171 177 179 183 191 183 193 192 184 192 194 198 196 196 188 186 180 194 208 187 211 239 234
202 211 202 188 195 184 175 175 175 175 172 172 172 167 170 169 169 172 174 176 177 177 177 180 178 183 185 191 188 184 183 184 181 180 180 181 182 183 180 181 177 180 182 191 188 194 179 196 185 188 191 192 196 193 187 191 189 189 194 192 184 224 255
198 205 200 193 184 201 176 174 177 177 174 173 170 168 172 171 172 173 172 175 178 176 176 178 181 183 186 187 187 189 187 183 183 180 181 185 188 187 188 183 185 182 192 187 188 194 194 191 193 189 187 188 189 191 189 189 196 194 199 193 190 192 213
193 200 201 196 191 198 189 173 179 178 177 174 173 170 170 172 173 173 172 175 175 176 178 181 179 183 184 187 188 187 188 187 184 184 185 186 190 187 181 190 192 191 193 197 195 192 194 185 192 194 192 189 193 189 189 192 193 193 200 196 203 199 201
193 198 194 194 196 193 197 186 175 180 179 178 172 169 170 171 171 172 175 177 175 178 181 180 182 183 185 187 189 189 187 183 185 183 185 187 188 188 187 192 194 195 199 196 193 193 187 184 189 189 195 191 196 196 199 199 202 198 195 191 200 200 205
194 200 201 192 198 198 191 198 188 179 179 178 172 166 169 168 170 173 175 175 179 179 177 178 183 182 185 190 189 188 184 185 179 182 183 184 186 189 196 198 193 197 193 196 187 191 184 186 188 190 194 197 197 198 204 205 210 201 200 192 198 201 201
195 203 205 195 194 195 175 171 180 210 191 179 170 164 164 168 171 173 172 175 176 175 180 182 184 183 186 185 191 184 188 186 180 184 183 186 188 192 200 201 198 197 199 185 193 187 186 187 189 191 195 198 199 198 200 206 208 208 201 197 209 212 208
192 213 216 204 183 121 152 165 156 139 91 43 179 167 170 171 168 171 175 176 174 175 180 183 185 184 184 185 187 189 189 191 188 186 186 190 194 196 199 201 198 197 188 191 197 186 191 192 191 190 194 198 200 199 200 202 205 207 190 201 209 222 215
104 68 249 210 179 169 178 182 170 158 148 141 145 228 179 169 172 174 175 174 175 176 183 185 185 183 181 183 185 188 189 190 194 194 194 194 197 202 199 197 195 189 191 194 195 193 191 195 197 189 190 195 195 194 196 198 203 202 196 201 202 210 221
158 185 196 180 147 153 157 151 143 144 146 146 160 150 193 182 176 176 175 176 175 180 181 182 183 181 181 183 185 185 186 191 197 200 202 203 198 200 201 194 192 186 189 193 190 195 199 197 199 195 194 198 196 197 198 196 201 198 199 200 200 205 214
343 180 125 138 162 155 145 143 156 169 165 169 172 171 175 192 184 178 177 176 178 181 178 179 177 179 181 182 183 184 186 192 195 200 206 210 202 201 199 193 188 185 189 190 195 198 196 201 198 194 194 203 204 201 199 198 197 199 201 203 201 204 211
34 16 7 15 31 110 144 146 106 139 164 175 172 169 174 197 195 184 176 178 179 177 177 179 173 176 178 181 184 185 189 191 192 198 204 211 208 202 204 200 197 193 191 188 193 197 199 198 198 195 197 202 204 202 202 195 194 196 199 199 200 204 213
56 77 55 26 5 354 8 101 158 184 121 84 45 14 355 223 208 187 177 177 178 179 176 175 174 176 178 183 184 186 190 190 190 193 201 208 208 206 203 206 204 201 202 195 193 193 199 201 198 198 195 200 197 200 197 195 193 195 200 203 200 203 210
17 64 80 91 60 22 14 0 353 359 57 56 66 65 60 41 17 355 5 100 78 67 78 178 175 176 180 181 179 136 86 44 31 313 220 202 206 209 209 206 205 206 205 201 200 198 199 200 198 195 192 192 194 197 193 193 197 199 201 203 203 202 209
21 36 41 52 52 59 45 32 0 11 22 23 70 103 101 92 79 67 56 43 29 26 24 58 47 9 173 141 129 146 145 120 113 92 18 270 213 212 212 211 206 203 204 201 204 205 205 203 199 191 195 194 195 196 192 192 198 194 190 196 214 207 202
32 26 21 41 44 36 58 38 32 11 53 107 119 131 122 124 118 112 106 100 94 75 38 6 52 91 9 349 134 139 144 140 124 101 79 18 136 160 166 163 172 184 196 201 204 204 203 203 199 192 194 193 198 197 195 185 180 192 186 182 186 206 220
66 66 34 41 43 82 76 63 28 46 56 29 53 354 45 68 102 113 110 106 97 95 84 72 49 31 98 308 266 145 154 146 140 130 98 96 113 108 108 151 140 139 174 192 197 194 189 182 187 190 189 193 196 200 184 185 201 195 178 179 231 243 219
57 50 52 48 56 74 95 95 93 79 55 34 48 72 66 65 63 73 83 103 112 110 102 87 56 19 9 25 272 168 136 116 110 95 96 47 6 50 55 12 137 138 138 145 159 180 172 179 184 178 180 186 193 187 185 193 200 174 176 178 191 217 228
59 54 48 55 64 66 70 74 72 80 100 78 62 89 99 101 78 57 70 73 105 116 114 118 125 146 210 261 266 244 156 134 125 116 107 113 188 71 39 29 3 34 120 151 162 147 164 174 164 170 165 164 173 180 179 193 192 185 185 181 175 201 229
54 54 56 54 58 61 59 64 79 80 72 70 66 57 65 72 84 81 74 81 66 83 98 116 131 164 166 203 261 261 225 104 99 111 124 191 253 209 149 153 284 302 340 46 70 92 100 119 147 154 170 176 178 175 177 185 191 187 194 199 196 200 202
35 26 34 38 43 47 47 45 61 76 81 80 73 67 66 72 95 102 89 81 80 86 92 87 114 152 149 164 256 324 354 11 67 96 159 190 234 228 228 201 295 232 211 105 59 42 20 355 351 345 154 184 181 182 181 163 146 195 211 218 210 203 202
59 48 47 39 39 29 45 65 69 66 66 67 72 68 66 65 72 82 76 70 77 69 72 83 81 70 60 62 28 26 24 50 69 82 79 74 71 62 29 127 189 206 75 75 105 145 161 182 162 20 331 322 293 167 169 112 93 220 215 221 225 203 211
81 79 76 59 52 48 42 44 51 68 86 86 80 70 56 51 64 80 77 72 65 66 66 67 56 42 39 41 35 34 40 46 45 62 91 117 111 101 194 206 226 154 80 310 225 139 137 184 183 180 197 220 235 213 187 172 162 217 263 247 227 203 219
69 77 76 72 65 63 60 62 65 60 58 56 54 58 66 52 41 42 62 72 72 69 63 58 64 65 58 39 28 45 47 58 74 71 359 336 4 154 148 318 315 93 151 220 244 220 228 226 233 210 197 201 209 207 201 205 128 328 304 288 255 234 220
63 69 69 64 62 66 63 65 68 67 63 65 64 52 55 62 64 62 52 54 58 64 62 53 39 34 54 47 35 37 39 46 45 31 46 28 22 15 2 320 276 334 27 298 277 206 206 210 204 213 238 231 205 225 211 212 96 33 320 294 284 265 254
61 67 67 67 66 68 72 71 69 64 65 68 69 64 62 62 60 60 58 49 43 44 47 46 46 44 55 61 55 54 52 56 55 33 26 35 45 29 348 336 311 157 172 201 231 233 236 204 175 173 171 170 202 269 100 99 344 355 343 301 248 246 200
74 74 74 69 71 73 69 67 70 74 73 74 77 81 80 76 68 58 49 51 55 48 33 12 22 41 34 45 57 46 43 38 57 49 44 46 97 274 289 241 217 171 172 193 202 231 277 275 246 174 162 182 153 126 88 110 89 21 2 334 281 169 126
66 56 46 53 62 62 67 64 62 60 54 45 65 76 84 88 87 81 70 62 52 25 352 18 33 37 40 41 44 40 36 32 44 54 49 36 20 10 20 2 328 175 175 191 172 173 189 212 137 84 78 84 89 82 82 77 70 50 27 12 354 345 152
52 46 36 33 37 40 70 76 66 58 47 31 30 31 50 89 91 88 77 66 34 25 43 26 31 30 46 49 50 51 48 46 47 46 45 51 47 48 39 29 32 15 6 156 138 145 132 108 100 103 88 74 65 70 78 83 80 60 43 28 14 3 58
52 55 51 38 38 29 33 68 64 60 49 40 36 31 23 42 71 64 64 45 337 2 57 83 86 79 56 43 35 47 56 59 55 57 54 48 57 55 48 40 28 33 30 0 134 137 123 122 120 110 103 95 90 80 55 40 43 43 37 36 29 8 350
68 79 69 58 36 30 34 44 52 55 51 35 30 24 22 14 45 60 40 355 357 3 354 15 57 78 89 91 84 72 56 59 58 53 58 62 57 55 45 36 35 47 20 24 3 71 129 122 113 113 116 110 101 76 58 40 42 37 31 33 30 11 357
72 79 74 73 54 42 40 40 44 47 47 34 25 26 23 26 26 30 355 345 355 352 352 8 34 44 38 35 53 107 113 88 73 60 49 54 71 75 60 54 46 40 26 19 24 7 76 113 108 104 106 110 98 96 89 62 54 32 17 11 12 10 343
149 89 90 81 69 67 49 53 51 44 40 34 15 25 27 27 25 21 5 6 355 356 349 9 36 37 29 19 21 48 100 104 94 85 65 45 38 70 79 71 54 62 42 17 26 39 24 87 124 123 103 98 89 82 66 67 48 18 6 2 5 340 323
177 201 263 123 85 87 77 74 83 66 51 26 357 7 17 28 22 15 19 11 8 360 0 5 26 32 25 24 19 29 38 67 96 91 70 53 56 40 40 66 76 46 34 28 15 14 56 41 42 59 95 87 72 70 62 48 47 37 11 5 358 346 347
185 177 164 152 159 128 125 120 105 101 88 49 358 6 8 7 8 7 16 14 14 13 21 15 28 26 14 6 22 27 56 68 93 103 106 102 73 61 39 14 36 91 73 41 21 23 23 53 74 56 28 44 44 61 62 41 38 26 10 2 350 343 350
176 162 169 188 158 148 148 138 131 124 124 132 72 40 19 350 348 352 357 5 18 25 35 23 40 31 14 11 22 14 25 49 56 78 103 93 98 100 76 44 39 18 67 56 40 34 13 14 81 27 45 67 41 25 55 53 19 3 0 344 349 348 1
171 169 183 173 140 150 153 164 154 145 143 185 173 149 196 291 315 342 349 4 4 25 39 48 65 54 33 16 4 23 14 16 46 36 54 93 107 110 112 109 66 49 49 74 66 50 41 45 61 59 61 80 83 53 69 60 25 337 313 331 336 349 351
184 180 187 177 162 164 158 161 161 165 180 200 195 198 198 207 244 256 307 29 10 34 51 57 71 66 39 50 40 19 25 7 16 33 28 42 87 104 116 123 108 70 45 50 64 68 62 51 46 48 52 46 52 57 9 1 346 330 328 332 342 341 338